College Station, TX

12:51 AM CST on February 24, 2018 (GMT -0600)
Easterwood

Weather History for KCLL - October, 2010

Change the Weather History Date:

Tuesday, October 26, 2010

  Actual Average Record
Temperature  
Mean Temperature 76 °F 68 °F  
Max Temperature 88 °F 78 °F 92 °F (1939)
Min Temperature 64 °F 58 °F 38 °F (1957)
Degree Days  
Heating Degree Days 0 2  
Month to date heating degree days 0 20  
Since 1 July heating degree days 0 22  
Cooling Degree Days 11 5  
Month to date cooling degree days 207 193  
Year to date cooling degree days 3295 2989  
Growing Degree Days 28 (Base 50)    
Moisture  
Dew Point 62 °F    
Average Humidity 55    
Maximum Humidity 79    
Minimum Humidity 31    
Precipitation  
Precipitation T in 0.16 in 3.74 in (1964)
Month to date precipitation T 4.20  
Year to date precipitation 26.07 32.90  
Sea Level Pressure  
Sea Level Pressure 29.67 in    
Wind  
Wind Speed 8 mph (West)    
Max Wind Speed 20 mph    
Max Gust Speed 28 mph    
Visibility 8 miles    
Events Rain    
T = Trace of Precipitation, MM = Missing Value Source: NWS Daily Summary

Daily Weather History Graph

Daily Weather History Graph

Search for Another Location

Airport or City:

Trip Planner

Search our weather history database for the weather conditions in past years. The results will help you decide how hot, cold, wet, or windy it might be!

Date:

Astronomy

Oct. 26, 2010 Rise Set
Actual Time 7:35 AM CDT 6:42 PM CDT
Civil Twilight 7:10 AM CDT 7:07 PM CDT
Nautical Twilight 6:42 AM CDT 7:35 PM CDT
Astronomical Twilight 6:14 AM CDT 8:03 PM CDT
Moon 9:21 PM CDT (10/26) 11:01 AM CDT (10/26)
Length of Visible Light 11h 56m
Length of Day
11h 07m
Waning Gibbous, 87% of the Moon is Illuminated
Oct 26
Waning Gibbous
Oct 30
Last Quarter
Nov 5
New
Nov 13
First Quarter
Nov 21
Full

Hourly Weather History & Observations

Time (CDT) Temp. Heat Index Dew Point Humidity Pressure Visibility Wind Dir Wind Speed Gust Speed Precip Events Conditions
12:15 AM 78.8 °F - 71.6 °F 78% 29.55 in 9.0 mi South 18.4 mph 25.3 mph N/A   Mostly Cloudy
12:53 AM 78.1 °F - 71.1 °F 79% 29.55 in 9.0 mi South 12.7 mph 26.5 mph N/A   Overcast
1:53 AM 78.1 °F - 71.1 °F 79% 29.55 in 9.0 mi South 15.0 mph 23.0 mph N/A   Overcast
2:53 AM 79.0 °F - 71.1 °F 77% 29.55 in 10.0 mi South 12.7 mph 20.7 mph N/A   Mostly Cloudy
3:53 AM 79.0 °F - 71.1 °F 77% 29.54 in 9.0 mi South 15.0 mph 20.7 mph N/A   Overcast
4:53 AM 78.1 °F - 71.1 °F 79% 29.54 in 9.0 mi SSW 15.0 mph - N/A   Overcast
5:53 AM 78.1 °F - 70.0 °F 76% 29.57 in 10.0 mi SW 12.7 mph 21.9 mph N/A   Overcast
6:53 AM 78.1 °F - 70.0 °F 76% 29.63 in 8.0 mi SW 13.8 mph 19.6 mph 0.00 in Rain Light Rain
7:10 AM 77.0 °F - 69.8 °F 78% 29.65 in 8.0 mi SW 11.5 mph - N/A Rain Light Rain
7:53 AM 75.9 °F - 70.0 °F 82% 29.65 in 6.0 mi SSW 6.9 mph - 0.00 in   Haze
8:33 AM 77.0 °F - 69.8 °F 78% 29.69 in 7.0 mi WSW 8.1 mph - N/A   Mostly Cloudy
8:53 AM 77.0 °F - 70.0 °F 79% 29.69 in 7.0 mi West 8.1 mph - N/A   Overcast
9:10 AM 77.0 °F - 69.8 °F 78% 29.71 in 6.0 mi WSW 9.2 mph - N/A   Haze
9:53 AM 79.0 °F - 70.0 °F 74% 29.72 in 7.0 mi West 12.7 mph - N/A   Mostly Cloudy
10:26 AM 75.2 °F - 62.6 °F 65% 29.75 in 9.0 mi NNW 12.7 mph - N/A   Mostly Cloudy
10:53 AM 79.0 °F - 64.0 °F 60% 29.74 in 10.0 mi North 10.4 mph - N/A   Clear
11:53 AM 82.0 °F 83.4 °F 64.0 °F 54% 29.74 in 9.0 mi NNW 11.5 mph 16.1 mph N/A   Clear
12:53 PM 84.9 °F 85.0 °F 61.0 °F 44% 29.73 in 10.0 mi Variable 3.5 mph - N/A   Clear
1:53 PM 84.9 °F 84.8 °F 60.1 °F 43% 29.71 in 10.0 mi Variable 6.9 mph - N/A   Clear
2:17 PM 84.2 °F 83.8 °F 59.0 °F 42% 29.72 in 1.8 mi WNW 6.9 mph - N/A   Haze
2:31 PM 86.0 °F 84.9 °F 57.2 °F 37% 29.71 in 3.0 mi Calm Calm - N/A   Haze
2:53 PM 86.0 °F 84.9 °F 57.2 °F 37% 29.70 in 6.0 mi Calm Calm - N/A   Haze
3:53 PM 86.0 °F 84.5 °F 55.0 °F 35% 29.68 in 10.0 mi Variable 5.8 mph - N/A   Clear
4:53 PM 87.1 °F 84.9 °F 53.1 °F 31% 29.68 in 10.0 mi WNW 4.6 mph - N/A   Clear
5:53 PM 84.9 °F - 52.0 °F 32% 29.67 in 10.0 mi North 4.6 mph - N/A   Clear
6:53 PM 80.1 °F - 51.1 °F 36% 29.68 in 10.0 mi NW 4.6 mph - N/A   Clear
7:53 PM 75.9 °F - 50.0 °F 40% 29.72 in 10.0 mi NW 6.9 mph - N/A   Clear
8:53 PM 70.0 °F - 50.0 °F 49% 29.74 in 7.0 mi North 4.6 mph - N/A   Clear
9:53 PM 70.0 °F - 50.0 °F 49% 29.75 in 4.0 mi North 4.6 mph - N/A   Haze
10:53 PM 70.0 °F - 51.1 °F 51% 29.78 in 10.0 mi Calm Calm - N/A   Clear
11:53 PM 68.0 °F - 52.0 °F 56% 29.79 in 10.0 mi NNE 3.5 mph - N/A   Clear